Location: Newark
(44.3248°N, 23.7839°E)
Time: 22:05:51
(UTC+00:00)

PCSat - Pass Details

Date: 15 April 2024
Orbit: 783 x 792 km, 67.1° (Epoch: 20 May)

Event Time Altitude Azimuth Distance (km) Brightness Sun altitude
Rises 21:07:40 0° 266° (W) 3,278 13.0 -32.8°
Reaches altitude 10° 21:11:04 10° 287° (WNW) 2,354 12.4 -33.0°
Maximum altitude 21:14:18 16° 325° (NW) 1,979 12.3 -33.2°
Drops below altitude 10° 21:17:33 10° 2° (N) 2,364 12.7 -33.4°
Sets 21:21:00 0° 24° (NNE) 3,298 13.4 -33.6°
